Regional Weather Roundup
Issued by NWS Portland, ME

Home | Current Version | Previous Version | Text Only | Print | Product List | Glossary On
Versions: 1 2 3 4 5 6 7 8 9 10 11 12 13 14 15 16 17 18 19 20 21 22 23 24 25 26 27 28 29 30 31 32 33 34 35 36 37 38 39 40 41 42 43 44 45 46 47 48 49 50
000
ASUS41 KGYX 281210
RWRGYX
WEATHER ROUNDUP FOR MAINE AND NEW HAMPSHIRE
NATIONAL WEATHER SERVICE GRAY ME
800 AM EDT THU JUL 28 2016

MEZ002-005-006-010-012-015-018-020-021-024-026-027-029-281300-
MAINE

CITY           SKY/WX    TMP DP  RH WIND       PRES   REMARKS
PORTLAND       MOSUNNY   73  64  73 CALM      29.88F
6HR MIN TEMP:  64; 6HR MAX TEMP:  73;

SANFORD          N/A     75  67  76 CALM      29.89F
BAR HARBOR     CLOUDY    70  67  90 SE6       29.90S
WISCASSET      SUNNY     71  66  84 SE5       29.90S
6HR MIN TEMP:  62; 6HR MAX TEMP:  71;

ROCKLAND       CLOUDY    68  68 100 SW3       29.90R FOG
FRYEBURG       NOT AVBL
LEWISTONAUBURN SUNNY     71  66  84 CALM      29.89F
AUGUSTA        SUNNY     71  64  78 CALM      29.89F
6HR MIN TEMP:  65; 6HR MAX TEMP:  71;

WATERVILLE     SUNNY     69  65  86 CALM      29.87S
BANGOR         PTSUNNY   74  64  71 S6        29.89S
6HR MIN TEMP:  69; 6HR MAX TEMP:  74;

GREENVILLE       N/A     70  57  63 CALM      29.90S
6HR MIN TEMP:  66; 6HR MAX TEMP:  70;

MILLINOCKET    CLOUDY    69  64  84 CALM      29.89S
6HR MIN TEMP:  64; 6HR MAX TEMP:  69;

HOULTON        CLOUDY    72  66  81 CALM      29.87R
6HR MIN TEMP:  66; 6HR MAX TEMP:  72;

PRESQUE ISLE   CLOUDY    67  64  90 CALM      29.89S
6HR MIN TEMP:  60; 6HR MAX TEMP:  67;

FRENCHVILLE    PTSUNNY   68  60  75 N7        29.89R
6HR MIN TEMP:  61; 6HR MAX TEMP:  68;

CARIBOU        CLOUDY    71  64  78 CALM      29.88R
6HR MIN TEMP:  62; 6HR MAX TEMP:  71;

$$

NHZ002-005-008-009-011-012-014-281300-
NEW HAMPSHIRE

CITY           SKY/WX    TMP DP  RH WIND       PRES   REMARKS
PORTSMOUTH     MOSUNNY   73  66  77 CALM      29.88S
ROCHESTER      SUNNY     74  64  71 NW5       29.89S
6HR MIN TEMP:  62; 6HR MAX TEMP:  74;

NASHUA         SUNNY     73  62  68 CALM      29.91S
MANCHESTER     MOSUNNY   75  62  64 CALM      29.89S
6HR MIN TEMP:  67; 6HR MAX TEMP:  75;

CONCORD        SUNNY     72  62  71 CALM      29.91S
6HR MIN TEMP:  61; 6HR MAX TEMP:  72;

LACONIA        SUNNY     73  65  75 W6        29.92S
PLYMOUTH       FAIR      65  63  90 CALM      29.92S
BERLIN         SUNNY     68  60  75 CALM      29.94S
6HR MIN TEMP:  57; 6HR MAX TEMP:  68;

WHITEFIELD     MOSUNNY   67  61  81 CALM      29.93S
6HR MIN TEMP:  58; 6HR MAX TEMP:  67;

JAFFREY        SUNNY     70  60  70 S5        29.96R
6HR MIN TEMP:  59; 6HR MAX TEMP:  70;

KEENE          SUNNY     66  60  81 CALM      29.94S
LEBANON        SUNNY     69  62  78 CALM      29.92S
6HR MIN TEMP:  62; 6HR MAX TEMP:  69;

MT WASHINGTON  MOSUNNY   54  52  94 W18         N/A
6HR MIN TEMP:  53; 6HR MAX TEMP:  54;

$$

VTZ005-007-008-281300-
VERMONT

CITY           SKY/WX    TMP DP  RH WIND       PRES   REMARKS
ST JOHNSBURY     N/A     66  61  84 MISG      29.91S
MONTPELIER     FAIR      67  63  87 CALM      29.97R
BURLINGTON     PTSUNNY   73  62  68 S3        29.90R
$$

MAZ007-012-024-CTZ003-RIZ002-NYZ038-NYZ072-281300-
SOUTHERN NEW ENGLAND AND NY

CITY           SKY/WX    TMP DP  RH WIND       PRES   REMARKS
BOSTON         MOSUNNY   82  62  50 W5        29.90S
WORCESTER      SUNNY     75  60  59 W7        29.95S
NANTUCKET      PTSUNNY   72  70  93 S10       29.94R
PROVIDENCE     MOSUNNY   76  65  68 CALM      29.92R
HARTFORD       MOSUNNY   73  61  65 N3        29.93R
ALBANY         MOSUNNY   72  63  73 S5        29.93R
NEW YORK CITY  PTSUNNY   79  73  82 NE7       29.91S
$$

ANZ081-ANZ082-ANZ150-NHZ014-MEZ023>029-281300-
COASTAL MARINE OBSERVATIONS

STATION/POSITION TIME  TEMP    WIND        PRES    WAVE
                       AIR SEA DIR/SP/G            HT/PER
                 (UTC) (F)     (DEG/KT/KT) (MB)    (FT/S)
MOUNT DESERT ROC 1200   66     170/ 11/ 12 1012.8R
MATINICUS ROCK   1100   65     170/ 15/ 15 1011.9S
ISLE OF SHOALS   1100   70     260/  5/  6 1012.0R
JEFFREYS LEDGE   1108      69                N/A     1/ 7
CASHES LEDGE BUO 1150   71 71  180/  8/ 10 1012.3R   2/ 7
GEORGES BANK BUO 1050   67 66              1013.8    2/ 5
$$

.............KEY..............
   WCI - WIND CHILL
   TC  - TEMPERATURE IN CELSIUS
   VSB - VISIBILITY IN MILES
   HX  - HEAT INDEX
   FAIR- INDICATES FEW OR NO CLOUDS BELOW 12,000 FT, WITH NO
         SIGNIFICANT WEATHER AND/OR OBSTRUCTIONS TO VISIBILITY.






USA.gov is the U.S. government's official web portal to all federal, state and local government web resources and services.